Back to catalog

CZ-4 DEB

AliveSSO
NORAD 37612·DEBRIS·🇨🇳 China

Launched Sep 3, 1990 from Taiyuan Satellite Launch Center

Loading…

Next Passes (next 24 hours)

TLE

AgingSource: Space-Track

Epoch: Sep 7, 2026, 08:59 UTC

1 37612U 90081CY  26250.37455141  .00001525  00000-0  35888-3 0  9990
2 37612  98.2631 290.2718 0027430 261.6217 110.6930 14.55543918695870

Track CZ-4 DEB in real time with AllMySat

Download on the App Store